FENGYUN 1C DEB, 31287

Orbit data source: Space-Track

FENGYUN 1C DEB, 31287 is space debris in SSO originally from a launch on Mon, 10 May 1999 UTC launched from the Taiyaun Space Center, China (TSC). Fengyun 1C debris stems from the Chinese weather satellite Fengyun-1C, which was intentionally destroyed by a Chinese anti-satellite missile in 2007. This event dramatically increased the amount of space debris, with thousands of trackable fragments posing hazards to satellites and human spaceflight. The Fengyun 1C debris cloud has become a focal point in discussions about space sustainability and the need for international regulations to prevent the creation of new debris.

Loading next visibility...
Identifier
31287, 1999-025BNV
Orbit
SSO
Country
Flag of CNCN / PRC
Related business
Manufacturer
Unknown
Mission
Spacecraft
Bus & Motor
Unknown
Mass
Unknown
Launch date (UTC)
1999-05-10 (26 years ago)
Launch vehicle
Unknown
Launch site
Taiyaun Space Center, China (TSC)
Object type
Payload
Rocket body
Debris
Shape & HBR
Unknown shape, 0.1 m
Radar Cross Section
Small (<0.1 m²)

Expand to show TLE details & history
Last TLE update: 14 hours ago

TLE from 14 hours ago
0 FENGYUN 1C DEB
1 31287U 99025BNV 25304.64475841  .00005059  00000-0  20666-2 0  9990
2 31287  99.4120 357.3697 0029154 178.9451 181.1794 14.27557596960854
Epoch: 2025-10-31T15:28Z
TLE epoch observation values (Epoch: 2025-10-31T15:28:27.126Z)
Latitude
-0.00001°
Longitude
85.07045°
Altitude
823.734 km
Speed
7.43 km/s
True Right ascension
23h 49m 28s
True Declination
0° 00' 00"
Sunlit
Object was in full shadow at epoch
Visualization orbit readout
Latitude
Unknown
Longitude
Unknown
Altitude
Unknown
Speed
Unknown
Apparent Right ascension
Unknown
Apparent Declination
Unknown
Sunlit
N/A
Visualization observer readout
Local Sidereal Time
01:08:02
Azimuth
Unknown
Elevation
Unknown
Doppler factor
Unknown
Orbital elements
Apogee altitude
818.009 km
Perigee altitude
776.171 km
Semi-major axis
7,175.227 km
Eccentricity
0.00292
Inclination
99.412°
RAAN
357.3697°
Arg. of periapsis
178.9451°
True anomaly
181.17255°
Mean anomaly
181.1794°
Eccentric anomaly
181.17597°
Mean motion
3.571 °/min
Orbital period
100.81 mins
BSTAR
0.0020666
Loading maneuver chart data...
Computing Atmospheric mass density...

Documentation

Showing up to 5 results
|